Boulmer, United Kingdom

8:53 AM BST on March 28, 2017 (GMT +0100)
Boulmer

Weather History for EGQM - February, 2013

Change the Weather History Date:

Monday, February 25, 2013

  Actual Average (EGNT) Record (EGNT)
Temperature  
Mean Temperature 40 °F -  
Max Temperature 43 °F 46 °F 57 °F (2011)
Min Temperature 38 °F 35 °F 24 °F (2001)
Degree Days  
Heating Degree Days 24    
Moisture  
Dew Point 36 °F    
Average Humidity 82    
Maximum Humidity 93    
Minimum Humidity 75    
Precipitation  
Precipitation 0.00 in - - ()
Sea Level Pressure  
Sea Level Pressure 30.53 in    
Wind  
Wind Speed 10 mph ()    
Max Wind Speed 14 mph    
Max Gust Speed -    
Visibility 7.7 miles    
Events      
Averages and records for this station are not official NWS values.
T = Trace of Precipitation, MM = Missing Value Source: Averaged Metar Reports

Daily Weather History Graph

Daily Weather History Graph

Search for Another Location

Airport or City:

Trip Planner

Search our weather history database for the weather conditions in past years. The results will help you decide how hot, cold, wet, or windy it might be!

Date:

Astronomy

Feb. 25, 2013 Rise Set
Actual Time 7:06 AM GMT 5:33 PM GMT
Civil Twilight 6:29 AM GMT 6:10 PM GMT
Nautical Twilight 5:47 AM GMT 6:52 PM GMT
Astronomical Twilight 5:04 AM GMT 7:35 PM GMT
Moon 5:39 PM GMT (2/25) 6:25 AM GMT (2/25)
Length of Visible Light 11h 41m
Length of Day
10h 26m
Full, 100% of the Moon is Illuminated
Feb 25
Full
Feb 25
Full
Mar 4
Last Quarter
Mar 11
New
Mar 19
First Quarter

Hourly Weather History & Observations

Time (GMT) Temp. Windchill Dew Point Humidity Pressure Visibility Wind Dir Wind Speed Gust Speed Precip Events Conditions
12:50 AM 39.2 °F 32.0 °F 33.8 °F 81% 30.45 in 6.2 mi NNE 11.5 mph - N/A   Mostly Cloudy
1:50 AM 39.2 °F 32.0 °F 33.8 °F 81% 30.45 in 6.2 mi NNE 11.5 mph - N/A   Mostly Cloudy
2:50 AM 40 °F - 35 °F 75% 30.47 in 17 mi North 10.4 mph - -   Mostly Cloudy
2:50 AM 39.2 °F 32.5 °F 35.6 °F 87% 30.45 in 6.2 mi North 10.4 mph - N/A   Mostly Cloudy
3:50 AM 39.2 °F 33.0 °F 35.6 °F 87% 30.45 in 6.2 mi North 9.2 mph - N/A   Mostly Cloudy
4:50 AM 39.2 °F 32.5 °F 35.6 °F 87% 30.45 in 6.2 mi NNE 10.4 mph - N/A   Scattered Clouds
5:50 AM 38 °F - 35 °F 84% 30.49 in 11 mi North 8.1 mph - -  
5:50 AM 39.2 °F 33.6 °F 35.6 °F 87% 30.48 in 6.2 mi North 8.1 mph - N/A   Unknown
6:50 AM 39.2 °F 33.0 °F 35.6 °F 87% 30.48 in 6.2 mi North 9.2 mph - N/A   Partly Cloudy
7:50 AM 39.2 °F 33.6 °F 35.6 °F 87% 30.51 in 6.2 mi North 8.1 mph - N/A   Unknown
8:50 AM 41 °F - 36 °F 76% 30.53 in 19 mi North 10.4 mph - -  
8:50 AM 41.0 °F 34.7 °F 35.6 °F 81% 30.51 in 6.2 mi North 10.4 mph - N/A   Unknown
9:50 AM 42.8 °F 35.8 °F 37.4 °F 81% 30.51 in 6.2 mi North 13.8 mph - N/A   Unknown
10:50 AM 42.8 °F 35.8 °F 37.4 °F 81% 30.54 in 6.2 mi North 13.8 mph - N/A   Scattered Clouds
11:50 AM 43 °F - 38 °F 77% 30.56 in 12 mi North 13.8 mph - -   Partly Cloudy
11:50 AM 42.8 °F 35.8 °F 37.4 °F 81% 30.54 in 6.2 mi North 13.8 mph - N/A   Scattered Clouds
12:50 PM 42.8 °F 36.2 °F 37.4 °F 81% 30.54 in 6.2 mi North 12.7 mph - N/A   Mostly Cloudy
1:50 PM 42.8 °F 36.6 °F 39.2 °F 87% 30.54 in 6.2 mi North 11.5 mph - N/A   Mostly Cloudy
2:50 PM 43 °F - 38 °F 77% 30.56 in 7 mi NNE 10.4 mph - -  
2:50 PM 42.8 °F 37.0 °F 39.2 °F 87% 30.54 in 6.2 mi NNE 10.4 mph - N/A   Unknown
3:50 PM 42.8 °F 37.0 °F 37.4 °F 81% 30.54 in 6.2 mi North 10.4 mph - N/A   Mostly Cloudy
4:50 PM 41.0 °F 34.7 °F 35.6 °F 81% 30.54 in 5.6 mi NNE 10.4 mph - N/A   Haze
5:50 PM 41 °F - 36 °F 76% 30.58 in 12 mi NNE 11.5 mph - -   Overcast
5:50 PM 41.0 °F 34.3 °F 35.6 °F 81% 30.57 in 6.2 mi NNE 11.5 mph - N/A   Overcast
6:50 PM 41.0 °F 33.9 °F 35.6 °F 81% 30.57 in 6.2 mi NE 12.7 mph - N/A   Mostly Cloudy
7:50 PM 41.0 °F 34.3 °F 35.6 °F 81% 30.60 in 6.2 mi NNE 11.5 mph - N/A   Overcast
8:50 PM 40 °F - 36 °F 78% 30.61 in 10 mi NNE 10.4 mph - -   Mostly Cloudy
8:50 PM 41.0 °F 34.7 °F 35.6 °F 81% 30.60 in 6.2 mi NNE 10.4 mph - N/A   Mostly Cloudy
9:50 PM 41.0 °F 34.7 °F 35.6 °F 81% 30.60 in 6.2 mi NNE 10.4 mph - N/A   Mostly Cloudy
10:50 PM 39.2 °F 33.0 °F 37.4 °F 93% 30.60 in 6.2 mi NNE 9.2 mph - N/A   Mostly Cloudy
11:50 PM 40 °F - 35 °F 78% 30.62 in 9 mi NE 9.2 mph - -  
11:50 PM 39.2 °F 33.0 °F 35.6 °F 87% 30.60 in 6.2 mi NE 9.2 mph - N/A   Unknown